DW0950 Weather Reports


time (UTC)temp
F
wind
direction
speed
knots
gust
knots
rain 1hr
in
rain 24hr
in
rain mn
in
humidity
%
barometer
mb
20260507063836 57 199 2.6 7.0 0.00 0.07 0.04 90 1013.8
20260507062806 56 209 3.5 7.0 0.00 0.07 0.04 90 1013.7
20260507054421 55 170 0.0 5.2 0.00 0.07 0.04 92 1013.7
20260507053407 55 166 1.7 10.4 0.00 0.07 0.04 92 1013.7
20260507051301 55 148 2.6 8.7 0.00 0.08 0.04 92 1013.6
20260507050226 55 141 1.7 5.2 0.00 0.08 0.04 92 1013.5
20260507045231 55 206 3.5 7.8 0.00 0.08 0.04 92 1013.4
20260507043106 54 192 4.3 10.4 0.00 0.08 0.04 92 1013.1
20260507042119 55 165 3.5 9.6 0.00 0.08 0.04 92 1013.0
20260507041111 55 194 4.3 9.6 0.00 0.08 0.04 92 1012.9
20260507040126 55 204 3.5 8.7 0.00 0.08 0.04 92 1012.9
20260507035144 55 175 3.5 8.7 0.00 0.08 0.04 92 1012.7
20260507034110 55 167 4.3 8.7 0.00 0.08 0.04 92 1012.7
20260507033102 55 191 3.5 8.7 0.00 0.08 0.04 92 1012.7
20260507032046 55 173 4.3 8.7 0.00 0.08 0.04 92 1012.7
20260507031035 55 212 4.3 7.8 0.00 0.08 0.04 92 1012.7
20260507030048 55 198 3.5 7.0 0.00 0.08 0.04 92 1012.8
20260507023929 55 216 3.5 8.7 0.00 0.11 0.04 92 1012.8
20260507022905 55 173 3.5 9.6 0.00 0.11 0.04 92 1012.6
20260507021906 55 214 4.3 9.6 0.00 0.11 0.04 92 1012.6
20260507020859 55 206 4.3 8.7 0.00 0.11 0.04 92 1012.6
20260507015849 55 189 3.5 7.0 0.00 0.11 0.04 92 1012.6
20260507014911 55 186 2.6 7.0 0.00 0.11 0.04 92 1012.7
20260507013840 56 189 2.6 9.6 0.00 0.11 0.04 92 1012.6
20260507012853 56 172 4.3 9.6 0.00 0.11 0.04 92 1012.6
20260507011835 56 211 3.5 8.7 0.03 0.11 0.04 91 1012.6
20260507010839 56 235 3.5 8.7 0.03 0.11 0.04 91 1012.5
20260507005902 56 0 2.6 7.0 0.06 0.10 0.03 91 1012.5
20260507004843 56 217 3.5 12.2 0.05 0.09 0.03 90 1012.7
20260507002728 57 185 5.2 9.6 0.00 0.07 0.01 90 1012.7
20260507001746 57 204 4.3 9.6 0.00 0.07 0.01 90 1012.6
20260507000730 57 230 3.5 9.6 0.00 0.07 0.01 90 1012.7
20260506235659 57 208 3.5 8.7 0.00 0.07 0.01 90 1012.6
20260506234718 57 165 3.5 8.7 0.00 0.07 0.01 91 1012.6
20260506232624 58 196 2.6 6.1 0.00 0.07 0.01 90 1012.7
20260506231642 58 146 2.6 6.1 0.04 0.07 0.01 90 1012.7
20260506230628 58 190 1.7 7.0 0.10 0.07 0.01 89 1012.8
20260506225603 59 187 1.7 7.0 0.00 0.06 0.00 88 1012.9
20260506224600 59 234 2.6 7.0 0.00 0.06 0.00 88 1012.9
20260506223622 59 177 3.5 7.0 0.00 0.06 0.00 88 1013.0
20260506221455 59 214 2.6 6.1 0.00 0.06 0.00 87 1013.0
20260506220455 59 188 2.6 5.2 0.00 0.06 0.00 87 1012.9
20260506214336 59 189 5.2 8.7 0.00 0.06 0.06 87 1012.8
20260506213203 59 198 4.3 7.8 0.00 0.06 0.06 87 1012.8
20260506210950 59 185 3.5 9.6 0.00 0.06 0.06 87 1013.0
20260506204820 59 181 5.2 10.4 0.00 0.06 0.06 86 1012.8
20260506203808 60 194 5.2 9.6 0.00 0.06 0.06 86 1012.9
20260506202741 60 171 5.2 7.0 0.00 0.06 0.06 86 1012.9
20260506194721 60 167 2.6 6.1 0.00 0.06 0.06 87 1012.4
20260506193726 60 165 2.6 6.1 0.00 0.06 0.06 87 1012.4
20260506192708 60 169 1.7 5.2 0.00 0.06 0.06 87 1012.2
20260506191706 60 159 2.6 5.2 0.00 0.06 0.06 86 1012.2
20260506190703 60 154 1.7 7.0 0.00 0.05 0.05 86 1012.1
20260506184514 60 210 4.3 10.4 0.00 0.05 0.05 86 1011.7
20260506183441 60 199 4.3 9.6 0.00 0.05 0.05 87 1011.6
20260506181309 60 236 3.5 7.8 0.00 0.05 0.05 87 1011.6
20260506180329 61 227 4.3 7.8 0.00 0.05 0.05 86 1011.6
20260506175326 60 243 3.5 8.7 0.00 0.05 0.05 86 1011.5
20260506174305 61 196 3.5 8.7 0.00 0.05 0.05 86 1011.5
20260506173304 61 219 2.6 6.1 0.00 0.05 0.05 85 1011.5
20260506172242 62 211 4.3 8.7 0.00 0.04 0.05 83 1011.5
20260506171236 62 212 4.3 9.6 0.00 0.04 0.04 83 1011.3
20260506170233 62 0 4.3 9.6 0.00 0.04 0.04 84 1011.4
20260506165203 62 151 1.7 6.1 0.00 0.04 0.04 85 1011.4
20260506163135 62 0 3.5 8.7 0.00 0.04 0.04 84 1011.4
20260506162157 62 205 4.3 8.7 0.00 0.04 0.04 83 1011.3
20260506161146 62 182 2.6 7.8 0.00 0.04 0.04 82 1011.3
20260506160114 62 238 4.3 7.8 0.00 0.04 0.04 82 1011.4
20260506155058 62 218 4.3 8.7 0.00 0.04 0.04 81 1011.3
20260506154108 62 194 4.3 8.7 0.00 0.04 0.04 82 1011.3
20260506153059 62 209 5.2 9.6 0.00 0.04 0.04 82 1011.4
20260506152047 62 229 4.3 9.6 0.00 0.04 0.04 82 1011.4
20260506145919 61 253 3.5 8.7 0.00 0.03 0.03 83 1011.3
20260506144907 62 223 3.5 8.7 0.00 0.03 0.03 81 1011.3
20260506143835 64 233 6.1 9.6 0.00 0.03 0.03 73 1011.4
20260506142825 65 234 4.3 13.0 0.00 0.03 0.03 66 1011.1
20260506141757 66 210 6.1 13.0 0.00 0.03 0.03 65 1011.0
20260506140804 66 208 4.3 10.4 0.00 0.03 0.03 65 1011.0
20260506135735 66 160 3.5 9.6 0.00 0.03 0.03 65 1011.2
20260506134729 66 209 4.3 13.0 0.00 0.03 0.03 65 1011.3
20260506133718 66 186 6.1 13.0 0.00 0.03 0.03 64 1011.4
20260506132730 67 172 6.1 11.3 0.00 0.03 0.03 64 1011.6
20260506130613 65 252 5.2 11.3 0.00 0.03 0.03 63 1011.8
20260506125551 65 207 5.2 11.3 0.00 0.03 0.03 63 1011.9
20260506124522 65 217 5.2 11.3 0.00 0.03 0.03 63 1011.9
20260506122355 66 208 6.1 14.8 0.00 0.03 0.03 65 1011.7
20260506120158 67 221 7.0 13.9 0.00 0.03 0.03 63 1011.6
20260506115203 67 219 7.8 13.0 0.00 0.03 0.03 64 1011.7
20260506114134 67 196 7.0 15.6 0.00 0.03 0.03 63 1011.8
20260506113126 67 217 5.2 15.6 0.00 0.03 0.03 64 1011.8
20260506112107 66 185 5.2 12.2 0.00 0.03 0.03 64 1011.9
20260506111100 66 203 5.2 12.2 0.00 0.03 0.03 63 1012.1
20260506110112 66 207 6.1 13.0 0.00 0.03 0.03 63 1012.0
20260506105104 66 202 7.0 16.5 0.00 0.03 0.03 60 1011.9
20260506104108 67 224 7.0 16.5 0.00 0.03 0.03 61 1011.9
20260506103038 66 176 4.3 14.8 0.00 0.03 0.03 64 1012.0
20260506102015 65 180 7.0 14.8 0.00 0.03 0.03 65 1012.3
20260506100942 65 200 5.2 11.3 0.00 0.03 0.03 67 1012.2
20260506095916 64 171 6.1 9.6 0.00 0.03 0.03 70 1012.1
20260506094906 63 220 7.8 18.2 0.00 0.03 0.03 69 1012.2
20260506093857 63 225 9.6 18.2 0.00 0.03 0.03 70 1012.2
20260506092841 63 196 8.7 14.8 0.00 0.03 0.03 69 1012.1
20260506091828 63 203 6.1 14.8 0.00 0.03 0.03 71 1012.2
20260506084518 61 163 4.3 9.6 0.00 0.03 0.03 77 1012.3
20260506083534 60 0 6.1 14.8 0.00 0.03 0.03 78 1012.3
20260506082543 60 188 5.2 14.8 0.00 0.03 0.03 79 1012.2
20260506081530 59 215 5.2 11.3 0.00 0.03 0.03 79 1012.4
20260506080528 59 190 3.5 9.6 0.00 0.03 0.03 80 1012.3
20260506071350 58 208 2.6 5.2 0.00 0.03 0.03 81 1012.4